DW2537 Weather Reports


Display with metric or nautical units.
time (UTC)temp
F
wind
direction
speed
MPH
gust
MPH
rain 1hr
in
rain 24hr
in
rain mn
in
humidity
%
barometer
mb
20260906081541 62 0 0.0 0.0 0.00 0.00 0.00 91 1012.8
20260906080039 63 0 0.0 0.0 0.00 0.00 0.00 91 1012.6
20260906075523 63 0 0.0 0.0 0.00 0.00 0.00 90 1012.5
20260906075020 63 0 0.0 0.0 0.00 0.00 0.00 90 1012.5
20260906074539 63 0 0.0 0.0 0.00 0.00 0.00 90 1012.4
20260906074018 63 0 0.0 0.0 0.00 0.00 0.00 90 1012.4
20260906073523 63 0 0.0 0.0 0.00 0.00 0.00 90 1012.4
20260906073044 63 0 0.0 0.0 0.00 0.00 0.00 90 1012.4
20260906071540 63 0 0.0 0.0 0.00 0.00 0.00 89 1012.4
20260906070045 64 0 0.0 0.0 0.00 0.00 0.00 89 1012.3
20260906064542 64 0 0.0 0.0 0.00 0.00 0.00 89 1012.4
20260906063040 64 0 0.0 0.0 0.00 0.00 0.00 88 1012.4
20260906061550 64 0 0.0 0.0 0.00 0.00 0.00 88 1012.5
20260906060045 64 0 0.0 0.0 0.00 0.00 0.00 89 1012.4
20260906054540 64 0 0.0 0.0 0.00 0.00 0.00 88 1012.4
20260906053039 64 0 0.0 0.0 0.00 0.00 0.00 89 1012.7
20260906051538 65 0 0.0 0.0 0.00 0.00 0.00 89 1012.6
20260906051022 65 0 0.0 0.0 0.00 0.00 0.00 89 1012.6
20260906050526 65 0 0.0 0.0 0.00 0.00 0.00 89 1012.7
20260906050044 65 0 0.0 0.0 0.00 0.00 0.00 89 1012.7
20260906044543 65 0 0.0 0.0 0.00 0.00 0.00 89 1012.8
20260906043039 65 0 0.0 0.0 0.00 0.00 0.00 89 1012.9
20260906041545 65 0 0.0 0.0 0.00 0.00 0.00 89 1012.8
20260906040042 65 0 0.0 0.0 0.00 0.00 0.00 88 1012.8
20260906034539 65 0 0.0 0.0 0.00 0.00 0.00 89 1012.8
20260906034021 65 0 0.0 0.0 0.00 0.00 0.00 88 1012.9
20260906033521 65 0 0.0 0.0 0.00 0.00 0.00 89 1012.9
20260906033039 65 0 0.0 0.0 0.00 0.00 0.00 89 1012.9
20260906031547 66 0 0.0 0.0 0.00 0.00 0.00 87 1013.0
20260906030043 66 0 0.0 0.0 0.00 0.00 0.00 85 1012.8
20260906024540 67 0 0.0 0.0 0.00 0.00 0.00 84 1012.7
20260906024020 67 0 0.0 0.0 0.00 0.00 0.00 84 1012.8
20260906023521 67 0 0.0 0.0 0.00 0.00 0.00 84 1012.7
20260906023045 67 0 0.0 0.0 0.00 0.00 0.00 84 1012.6
20260906021547 68 0 0.0 0.0 0.00 0.00 0.00 82 1012.6
20260906020041 69 0 0.0 0.0 0.00 0.00 0.00 82 1012.7
20260906014547 69 0 0.0 0.0 0.00 0.00 0.00 83 1012.3
20260906014021 70 0 0.0 0.0 0.00 0.00 0.00 82 1012.3
20260906013045 70 0 0.0 0.0 0.00 0.00 0.00 79 1012.1
20260906011541 71 0 0.0 0.0 0.00 0.00 0.00 77 1012.0
20260906010049 72 0 0.0 0.0 0.00 0.00 0.00 77 1011.9
20260906004546 73 0 0.0 0.0 0.00 0.00 0.00 76 1011.9
20260906003041 73 0 0.0 0.0 0.00 0.00 0.00 74 1011.8
20260906002020 74 0 0.0 1.0 0.00 0.00 0.00 72 1011.7
20260906001549 75 0 0.0 1.0 0.00 0.00 0.00 69 1011.6
20260906001020 75 0 0.0 2.0 0.00 0.00 0.00 71 1011.5
20260906000046 76 0 0.0 2.0 0.00 0.00 0.00 71 1011.5
20260905234544 76 0 0.0 2.0 0.00 0.00 0.00 69 1011.5
20260905233038 77 0 0.0 1.0 0.00 0.00 0.00 67 1011.3
20260905232520 77 0 0.0 1.0 0.00 0.00 0.00 66 1011.1
20260905231539 78 0 0.0 1.0 0.00 0.00 0.00 65 1011.2
20260905230042 79 0 0.0 1.0 0.00 0.00 0.00 64 1011.2
20260905224538 79 41 0.0 4.0 0.00 0.00 0.00 64 1011.2
20260905223044 79 0 0.0 1.0 0.00 0.00 0.00 66 1011.2
20260905221022 80 0 0.0 3.0 0.00 0.00 0.00 65 1010.8
20260905220046 81 125 1.0 4.0 0.00 0.00 0.00 64 1010.7
20260905214541 81 115 0.0 8.0 0.00 0.00 0.00 63 1010.4
20260905213519 82 0 0.0 4.0 0.00 0.00 0.00 64 1010.4
20260905213039 82 0 0.0 4.0 0.00 0.00 0.00 65 1010.2
20260905212519 82 0 0.0 4.0 0.00 0.00 0.00 64 1010.2
20260905211542 82 0 0.0 2.0 0.00 0.00 0.00 63 1010.2
20260905210045 82 0 0.0 4.0 0.00 0.00 0.00 62 1010.0
20260905204540 83 0 0.0 3.0 0.00 0.00 0.00 67 1010.1
20260905203047 82 30 1.0 2.0 0.00 0.00 0.00 66 1010.3
20260905201539 82 55 0.0 6.0 0.00 0.00 0.00 60 1010.4
20260905200045 80 71 0.0 4.0 0.00 0.00 0.00 70 1010.6
20260905194545 80 5 0.0 3.0 0.00 0.00 0.00 69 1010.6
20260905193040 81 113 0.0 7.0 0.00 0.00 0.00 68 1010.7
20260905191543 82 70 2.0 5.0 0.00 0.00 0.00 65 1010.9
20260905190056 81 267 1.0 6.0 0.00 0.00 0.00 68 1011.0
20260905184548 80 77 0.0 6.0 0.00 0.00 0.00 69 1011.1
20260905183039 80 41 0.0 6.0 0.00 0.00 0.00 66 1011.3
20260905181547 80 0 1.0 4.0 0.00 0.00 0.00 69 1011.5
20260905180044 80 106 0.0 4.0 0.00 0.00 0.00 72 1011.5
20260905175522 80 167 1.0 4.0 0.00 0.00 0.00 68 1011.6
20260905175026 80 116 0.0 3.0 0.00 0.00 0.00 69 1011.5
20260905174541 80 80 1.0 4.0 0.00 0.00 0.00 67 1011.6
20260905173044 80 109 0.0 2.0 0.00 0.00 0.00 72 1011.7
20260905171547 81 151 1.0 6.0 0.00 0.00 0.00 66 1011.7
20260905170049 81 16 0.0 3.0 0.00 0.00 0.00 68 1011.9
20260905164548 81 113 0.0 5.0 0.00 0.00 0.00 64 1011.8
20260905163044 81 150 1.0 6.0 0.00 0.00 0.00 70 1011.9
20260905161540 80 88 1.0 3.0 0.00 0.00 0.00 70 1012.2
20260905160052 80 65 1.0 3.0 0.00 0.00 0.00 69 1012.3
20260905154541 80 169 0.0 1.0 0.00 0.00 0.00 71 1012.4
20260905153058 80 0 0.0 1.0 0.00 0.00 0.00 71 1012.5
20260905151545 81 0 0.0 2.0 0.00 0.00 0.00 70 1012.5
20260905150046 81 0 0.0 5.0 0.00 0.00 0.00 67 1012.4
20260905144542 81 144 2.0 5.0 0.00 0.00 0.00 67 1012.2
20260905143048 80 54 2.0 6.0 0.00 0.00 0.00 65 1011.9
20260905141554 79 73 0.0 4.0 0.00 0.00 0.00 70 1011.9
20260905140042 79 53 2.0 8.0 0.00 0.00 0.00 67 1011.9
20260905134539 78 17 1.0 10.0 0.00 0.00 0.00 76 1012.0
20260905133042 77 44 1.0 4.0 0.00 0.00 0.00 78 1012.0
20260905131540 77 103 0.0 3.0 0.00 0.00 0.00 79 1012.0
20260905130041 76 126 1.0 4.0 0.00 0.00 0.00 85 1011.8
20260905124546 75 82 0.0 1.0 0.00 0.00 0.00 89 1011.7
20260905123042 74 0 0.0 4.0 0.00 0.00 0.00 90 1011.7
20260905121539 73 0 0.0 4.0 0.00 0.00 0.00 89 1011.8
20260905120039 72 0 0.0 2.0 0.00 0.00 0.00 95 1011.7
20260905114550 72 0 0.0 1.0 0.00 0.00 0.00 95 1011.4
20260905113039 72 0 0.0 0.0 0.00 0.00 0.00 95 1011.3
20260905111543 71 0 0.0 0.0 0.00 0.00 0.00 95 1011.0
20260905111020 71 0 0.0 0.0 0.00 0.00 0.00 95 1010.9
20260905110047 71 0 0.0 1.0 0.00 0.00 0.00 95 1011.0
20260905104552 71 0 0.0 1.0 0.00 0.00 0.00 95 1010.9
20260905103052 71 0 0.0 0.0 0.00 0.00 0.00 94 1010.4
20260905102021 71 0 0.0 1.0 0.00 0.00 0.00 94 1010.6
20260905101540 71 0 0.0 1.0 0.00 0.00 0.00 94 1010.6
20260905100055 71 0 0.0 0.0 0.00 0.00 0.00 94 1010.4
20260905094546 72 0 0.0 1.0 0.00 0.00 0.00 94 1010.3
20260905093040 72 0 0.0 1.0 0.00 0.00 0.00 94 1010.3
20260905092020 72 0 0.0 0.0 0.00 0.00 0.00 94 1010.3
20260905091545 72 0 0.0 0.0 0.00 0.00 0.00 94 1010.2
20260905084541 72 0 0.0 1.0 0.00 0.00 0.00 93 1010.2
20260905084030 72 0 0.0 1.0 0.00 0.00 0.00 93 1010.3
20260905083050 73 0 0.0 0.0 0.00 0.00 0.00 92 1010.4